Tracking 25689 objects as of 7-Jul-2022
HD Live streaming from Space Station
objects crossing your sky now

FENGYUN 1C DEB

Track FENGYUN 1C DEB now!
10-day predictions


NORAD ID: 37055
Int'l Code: 1999-025EEP
Perigee: 660.6 km
Apogee: 803.1 km
Inclination: 98.6 °
Period: 99.3 minutes
Semi major axis: 7102 km
RCS: 0.008 m2 (small)
Launch date: May 10, 1999
Source: People's Republic of China (PRC)
Launch site: Taiyaun Space Center, China (TSC)

Note: This is SATELLITE DEBRIS
aabbcc
Your satellite tracking list
Your tracking list is empty




NASA's NSSDC Master Catalog

Two Line Element Set (TLE):
1 37055U 99025EEP 22184.63613872  .00002963  00000-0  72500-3 0  9995
2 37055  98.6433 313.7518 0100323  85.0227 276.2410 14.50279356406426
Source of the keplerian elements: AFSPC